Flag Weather past 2 weeks in Rancho Cucamonga, California, U.S.A.

Now
50 °F

Fog.


Feels Like: 50 °F
Forecast: 52 / 70 °F
Wind: No wind

Location: Ontario International Airport

Current Time: Nov 23, 2014 at 5:32:23 AM

Latest Report: Nov 23, 2014 at 4:53 AM


Visibility: 3 mi

Pressure: 30.05 "Hg

Humidity: 93%

Dew point: 48 °F

Location of Rancho CucamongaLocation

Historic Weather in Rancho Cucamonga — Graph

°F

Rancho Cucamonga temperature yesterday

Maximum temperature yesterday: 71 °F (at 1:53 PM)
Minimum temperature yesterday: 49 °F (at 5:53 AM)
Average temperature yesterday: 60 °F

Past Weeks' High & Low Weather Summary

 TemperatureHumidityPressure
High91 °F (Nov 8, 2:53 PM)93% (Nov 10, 12:53 AM)30.16 "Hg (Nov 10, 12:53 AM)
Low46 °F (Nov 18, 1:53 AM)2% (Nov 16, 1:53 PM)29.77 "Hg (Nov 9, 3:53 PM)
Average63 °F55%30.00 "Hg
* Reported Nov 8 3:53 AM — Nov 23 3:53 AM, Rancho Cucamonga, Weather by CustomWeather, © 2014

Note: Actual official high and low records may vary slightly from our data, if they occured in-between our weather recording intervals... More about our weather records

Advertising

Rancho Cucamonga weather history for previous 24 hours

 ConditionsComfort  
Time TempWeatherWind HumidityBarometerVisibility
3:53 AM
Nov 23
52 °FFog.No wind93%30.03 "Hg5 mi
2:53 AM54 °FFog.3 mph90%30.04 "Hg6 mi
1:53 AM53 °FFog.No wind89%30.03 "Hg6 mi
12:53 AM56 °FPassing clouds.3 mph87%30.02 "Hg8 mi
11:53 PM
Nov 22
56 °FPassing clouds.3 mph90%30.02 "Hg9 mi
10:53 PM58 °FPassing clouds.5 mph87%30.03 "Hg10 mi
9:53 PM58 °FPassing clouds.3 mph87%30.03 "Hg10 mi
8:53 PM58 °FPassing clouds.3 mph84%30.03 "Hg10 mi
7:53 PM61 °FPassing clouds.7 mph78%30.01 "Hg10 mi
6:53 PM61 °FPassing clouds.7 mph75%30.01 "Hg10 mi
5:53 PM64 °FPassing clouds.10 mph61%30.01 "Hg10 mi
4:53 PM67 °FPassing clouds.8 mph51%29.99 "Hg10 mi
3:53 PM69 °FPartly sunny.8 mph44%29.99 "Hg10 mi
2:53 PM71 °FPartly sunny.6 mph41%30.00 "Hg10 mi
1:53 PM71 °FPartly sunny.5 mph36%30.01 "Hg10 mi
12:53 PM70 °FScattered clouds.9 mph37%30.03 "Hg10 mi
11:53 AM67 °FPartly sunny.3 mph42%30.05 "Hg10 mi
10:53 AM65 °FPartly sunny.No wind45%30.09 "Hg10 mi
9:53 AM62 °FBroken clouds.No wind48%30.11 "Hg10 mi
8:53 AM60 °FScattered clouds.No wind49%30.10 "Hg10 mi
7:53 AM56 °FScattered clouds.6 mph55%30.09 "Hg10 mi
6:53 AM50 °FScattered clouds.3 mph74%30.09 "Hg10 mi
5:53 AM49 °FPassing clouds.No wind80%30.07 "Hg10 mi
Weather by CustomWeather, © 2014

See weather overviewHow to use our weather pages